Weather History for Chanute, KS

Change the Weather History Date:

Thursday, February 21, 2013

  Actual Average Record
Temperature  
Mean Temperature 29 °F 39 °F  
Max Temperature 33 °F 50 °F 77 °F (1935)
Min Temperature 24 °F 29 °F -7 °F (1939)
Degree Days  
Heating Degree Days 36 26  
Month to date heating degree days 564 603  
Since 1 July heating degree days 2853 3402  
Cooling Degree Days 0 0  
Month to date cooling degree days 0 0  
Year to date cooling degree days 1 0  
Moisture  
Dew Point 26 °F    
Average Humidity 75    
Maximum Humidity 92    
Minimum Humidity 58    
Precipitation  
Precipitation 0.06 in 0.08 in 1.80 in (1985)
Month to date precipitation 0.53 1.34  
Year to date precipitation 2.90 2.60  
Sea Level Pressure  
Sea Level Pressure 29.83 in    
Wind  
Wind Speed 13 mph (East)    
Max Wind Speed 26 mph    
Max Gust Speed 35 mph    
Visibility 4 miles    
Events Fog , Rain , Snow , Thunderstorm    
T = Trace of Precipitation, MM = Missing Value Source: NWS Daily Summary

Daily Weather History Graph

Daily Weather History Graph

Search for Another Location

Airport:

Trip Planner

Search our weather history database for the weather conditions in past years. The results will help you decide how hot, cold, wet, or windy it might be!

Date:

Astronomy

Feb. 21, 2013 Rise Set
Actual Time 7:03 AM CST 6:07 PM CST
Civil Twilight 6:37 AM CST 6:34 PM CST
Nautical Twilight 6:06 AM CST 7:04 PM CST
Astronomical Twilight 5:36 AM CST 7:35 PM CST
Moon 2:26 PM CST (2/21) 4:05 AM CST (2/21)
Length of Visible Light 11h 57m
Length of Day
11h 04m
Waxing Gibbous, 84% of the Moon is Illuminated
Feb 21
Waxing Gibbous
Feb 25
Full
Mar 4
Last Quarter
Mar 11
New
Mar 19
First Quarter

Hourly Weather History & Observations

Time (CST) Temp. Windchill Dew Point Humidity Pressure Visibility Wind Dir Wind Speed Gust Speed Precip Events Conditions
12:52 AM 30.2 °F 19.8 °F 17.6 °F 60% 30.07 in 10.0 mi East 13.8 mph 23.0 mph N/A   Overcast
1:52 AM 28.9 °F 16.9 °F 19.0 °F 67% 30.04 in 10.0 mi East 17.3 mph 24.2 mph 0.00 in   Overcast
2:52 AM 28.9 °F 18.2 °F 19.9 °F 69% 30.01 in 7.0 mi East 13.8 mph 21.9 mph 0.00 in Snow Light Snow
3:52 AM 28.4 °F 17.0 °F 19.4 °F 69% 29.97 in 4.0 mi East 15.0 mph 20.7 mph N/A Snow Light Snow
4:01 AM 28.4 °F 17.0 °F 21.2 °F 74% 29.94 in 4.0 mi East 15.0 mph - 0.00 in Snow Light Snow
4:06 AM 28.4 °F 16.2 °F 21.2 °F 74% 29.94 in 2.5 mi East 17.3 mph 23.0 mph 0.00 in Snow Light Snow
4:09 AM 28.4 °F 16.6 °F 21.2 °F 74% 29.94 in 1.2 mi East 16.1 mph 23.0 mph 0.00 in Snow Light Snow
4:13 AM 26.6 °F 14.3 °F 21.2 °F 80% 29.93 in 0.8 mi East 16.1 mph 24.2 mph 0.00 in Snow Light Snow
4:25 AM 26.6 °F 14.3 °F 24.8 °F 93% 29.90 in 1.0 mi East 16.1 mph 27.6 mph 0.00 in Snow Light Snow
4:29 AM 26.6 °F 14.7 °F 24.8 °F 93% 29.92 in 1.5 mi East 15.0 mph 27.6 mph 0.00 in Snow Light Snow
4:38 AM 26.6 °F 14.3 °F 24.8 °F 93% 29.95 in 2.5 mi East 16.1 mph 21.9 mph 0.00 in Snow , Thunderstorm Light Snow
4:52 AM 27.0 °F 14.7 °F 23.0 °F 85% 29.96 in 1.8 mi East 16.1 mph 24.2 mph 0.00 in Snow , Thunderstorm Light Snow
4:54 AM 26.6 °F 13.8 °F 23.0 °F 86% 29.93 in 2.0 mi East 17.3 mph 23.0 mph 0.00 in Snow Light Snow
5:06 AM 26.6 °F 14.3 °F 24.8 °F 93% 29.89 in 2.0 mi ENE 16.1 mph 25.3 mph 0.00 in   Overcast
5:11 AM 26.6 °F 13.1 °F 24.8 °F 93% 29.88 in 3.0 mi ENE 19.6 mph 27.6 mph 0.00 in Rain , Thunderstorm Light Freezing Rain
5:21 AM 28.4 °F 16.6 °F 24.8 °F 86% 29.89 in 4.0 mi East 16.1 mph 31.1 mph N/A Rain Light Freezing Rain
5:39 AM 28.4 °F 15.1 °F 24.8 °F 86% 29.83 in 2.5 mi ENE 20.7 mph 34.5 mph N/A Rain , Thunderstorm Light Freezing Rain
5:50 AM 28.4 °F 15.8 °F 24.8 °F 86% 29.86 in 3.0 mi East 18.4 mph 28.8 mph N/A Rain , Thunderstorm Light Freezing Rain
5:52 AM 28.0 °F 14.9 °F 25.0 °F 88% 29.86 in 3.0 mi East 19.6 mph 28.8 mph N/A Rain , Thunderstorm Light Freezing Rain
5:57 AM 28.4 °F 14.7 °F 24.8 °F 86% 29.83 in 2.5 mi East 21.9 mph 28.8 mph N/A   Overcast
6:05 AM 28.4 °F 17.0 °F 24.8 °F 86% 29.86 in 2.5 mi ENE 15.0 mph 27.6 mph N/A   Overcast
6:09 AM 28.4 °F 17.5 °F 24.8 °F 86% 29.88 in 3.0 mi ENE 13.8 mph 26.5 mph N/A   Overcast
6:24 AM 28.4 °F 18.5 °F 24.8 °F 86% 29.89 in 2.5 mi ENE 11.5 mph - N/A   Overcast
6:48 AM 28.4 °F 24.6 °F 26.6 °F 93% 29.97 in 2.5 mi Variable 3.5 mph - N/A   Overcast
6:52 AM 28.0 °F 24.2 °F 26.1 °F 92% 30.00 in 2.0 mi NNW 3.5 mph - N/A   Overcast
6:59 AM 28.4 °F 24.6 °F 24.8 °F 86% 29.97 in 1.8 mi NE 3.5 mph - N/A   Overcast
7:12 AM 26.6 °F 16.8 °F 24.8 °F 93% 29.93 in 1.2 mi ENE 10.4 mph - N/A Snow , Thunderstorm Light Thunderstorms and Snow
7:23 AM 26.6 °F 16.2 °F 24.8 °F 93% 29.90 in 1.0 mi ENE 11.5 mph - N/A Snow , Thunderstorm Light Thunderstorms and Snow
7:34 AM 26.6 °F 16.8 °F 24.8 °F 93% 29.91 in 0.8 mi East 10.4 mph - N/A Snow Light Snow
7:42 AM 26.6 °F 14.3 °F 24.8 °F 93% 29.86 in 1.2 mi ENE 16.1 mph 23.0 mph N/A Snow Light Snow
7:47 AM 26.6 °F 14.3 °F 24.8 °F 93% 29.87 in 1.8 mi East 16.1 mph 23.0 mph N/A Snow Light Snow
7:52 AM 27.0 °F 15.2 °F 25.0 °F 92% 29.89 in 2.0 mi ENE 15.0 mph 23.0 mph N/A   Overcast
7:59 AM 28.4 °F 17.0 °F 26.6 °F 93% 29.88 in 2.5 mi East 15.0 mph 21.9 mph N/A Rain , Thunderstorm Light Freezing Rain
8:14 AM 28.4 °F 15.8 °F 26.6 °F 93% 29.84 in 2.5 mi East 18.4 mph 24.2 mph N/A Rain Light Freezing Rain
8:34 AM 30.2 °F 19.3 °F 28.4 °F 93% 29.86 in 3.0 mi East 15.0 mph 25.3 mph N/A Rain Light Freezing Rain
8:49 AM 30.2 °F 19.8 °F 28.4 °F 93% 29.84 in 2.0 mi East 13.8 mph 26.5 mph N/A Rain Light Freezing Rain
8:52 AM 30.0 °F 20.0 °F 28.0 °F 92% 29.88 in 2.0 mi East 12.7 mph 26.5 mph N/A Rain Light Freezing Rain
9:01 AM 30.2 °F 19.3 °F 28.4 °F 93% 29.84 in 2.5 mi East 15.0 mph 23.0 mph N/A Rain Light Freezing Rain
9:08 AM 30.2 °F 19.8 °F 28.4 °F 93% 29.83 in 3.0 mi East 13.8 mph 23.0 mph N/A Rain Light Freezing Rain
9:44 AM 30.2 °F 17.8 °F 28.4 °F 93% 29.79 in 5.0 mi East 19.6 mph 28.8 mph N/A Rain Light Freezing Rain
9:52 AM 30.9 °F 20.2 °F 28.0 °F 89% 29.83 in 5.0 mi East 15.0 mph 27.6 mph N/A Rain Light Freezing Rain
9:56 AM 30.2 °F 18.1 °F 28.4 °F 93% 29.81 in 5.0 mi East 18.4 mph 29.9 mph 0.00 in Rain Light Freezing Rain
10:38 AM 30.2 °F 17.4 °F 28.4 °F 93% 29.79 in 2.5 mi East 20.7 mph 28.8 mph 0.02 in Rain Light Freezing Rain
10:52 AM 30.0 °F 17.9 °F 27.0 °F 88% 29.82 in 6.0 mi East 18.4 mph 29.9 mph 0.02 in Rain Light Freezing Rain
11:08 AM 30.2 °F 18.9 °F 26.6 °F 86% 29.79 in 10.0 mi East 16.1 mph 24.2 mph 0.00 in Rain Light Freezing Rain
11:16 AM 30.2 °F 18.9 °F 26.6 °F 86% 29.78 in 10.0 mi East 16.1 mph 25.3 mph 0.00 in   Overcast
11:52 AM 30.2 °F 18.5 °F 26.6 °F 86% 29.77 in 10.0 mi East 17.3 mph 25.3 mph N/A   Overcast
12:10 PM 30.2 °F 19.3 °F 28.4 °F 93% 29.76 in 2.5 mi East 15.0 mph 21.9 mph 0.00 in Rain Light Freezing Rain
12:52 PM 30.9 °F 20.2 °F 28.9 °F 92% 29.77 in 2.0 mi East 15.0 mph - 0.00 in Rain Light Freezing Rain
1:00 PM 30.2 °F 19.3 °F 28.4 °F 93% 29.73 in 1.8 mi East 15.0 mph 20.7 mph 0.00 in Rain Light Freezing Rain
1:28 PM 30.2 °F 19.3 °F 28.4 °F 93% 29.73 in 2.0 mi ESE 15.0 mph 23.0 mph 0.00 in Rain Light Freezing Rain
1:50 PM 30.2 °F 20.2 °F 28.4 °F 93% 29.72 in 1.5 mi East 12.7 mph - 0.00 in Rain Light Freezing Rain
1:52 PM 30.9 °F 19.4 °F 28.9 °F 92% 29.74 in 1.5 mi ESE 17.3 mph 21.9 mph 0.00 in Rain Light Freezing Rain
2:20 PM 30.2 °F 18.1 °F 28.4 °F 93% 29.70 in 2.0 mi ESE 18.4 mph - 0.01 in   Overcast
2:29 PM 30.2 °F 21.9 °F 28.4 °F 93% 29.71 in 2.0 mi East 9.2 mph - 0.01 in Rain Light Freezing Rain
2:52 PM 30.9 °F 20.7 °F 28.9 °F 92% 29.73 in 1.8 mi ESE 13.8 mph - 0.01 in Rain Light Freezing Rain
3:47 PM 30.2 °F 21.3 °F 28.4 °F 93% 29.72 in 2.0 mi ESE 10.4 mph - 0.00 in Rain Light Freezing Rain
3:52 PM 30.9 °F 22.2 °F 28.9 °F 92% 29.74 in 2.0 mi ESE 10.4 mph - 0.00 in Rain Light Freezing Rain
3:59 PM 30.2 °F 20.8 °F 30.2 °F 100% 29.72 in 1.5 mi ESE 11.5 mph - 0.00 in Rain Light Freezing Rain
4:04 PM 30.2 °F 21.9 °F 30.2 °F 100% 29.72 in 1.2 mi ESE 9.2 mph - 0.00 in Snow Light Snow
4:13 PM 30.2 °F 22.6 °F 30.2 °F 100% 29.72 in 0.8 mi ESE 8.1 mph - N/A Snow Light Snow
4:40 PM 30.2 °F 23.4 °F 30.2 °F 100% 29.72 in 1.0 mi ESE 6.9 mph - 0.00 in Snow Light Snow
4:52 PM 30.9 °F 24.3 °F 30.0 °F 96% 29.74 in 0.8 mi ESE 6.9 mph - 0.00 in Snow Light Snow
5:00 PM 30.2 °F 23.4 °F 30.2 °F 100% 29.72 in 0.5 mi ESE 6.9 mph - 0.00 in Fog , Snow Snow
5:17 PM 30.2 °F 21.3 °F 30.2 °F 100% 29.73 in 1.2 mi ESE 10.4 mph - N/A Snow Light Snow
5:25 PM 30.2 °F 20.8 °F 30.2 °F 100% 29.72 in 1.8 mi ESE 11.5 mph - 0.00 in Snow Light Snow
5:35 PM 30.2 °F 20.8 °F 30.2 °F 100% 29.73 in 3.0 mi ESE 11.5 mph - 0.00 in Snow Light Snow
5:52 PM 30.9 °F 23.5 °F 30.0 °F 96% 29.75 in 6.0 mi ESE 8.1 mph - 0.00 in   Overcast
6:06 PM 30.2 °F 22.6 °F 30.2 °F 100% 29.73 in 8.0 mi ESE 8.1 mph - N/A   Overcast
6:52 PM 32.0 °F 26.4 °F 30.0 °F 92% 29.78 in 9.0 mi South 5.8 mph - N/A   Overcast
7:52 PM 32.0 °F 25.6 °F 30.9 °F 96% 29.78 in 7.0 mi South 6.9 mph - N/A   Overcast
8:43 PM 32.0 °F 23.6 °F 30.2 °F 93% 29.75 in 6.0 mi SW 10.4 mph - N/A   Overcast
8:52 PM 32.0 °F 24.2 °F 30.9 °F 96% 29.78 in 5.0 mi SW 9.2 mph - N/A   Overcast
9:24 PM 32.0 °F 23.6 °F 30.2 °F 93% 29.76 in 7.0 mi SW 10.4 mph - N/A   Overcast
9:52 PM 33.1 °F 23.9 °F 30.9 °F 92% 29.79 in 7.0 mi SW 12.7 mph - N/A   Overcast
10:37 PM 28.4 °F 17.0 °F 24.8 °F 86% 29.80 in 10.0 mi West 15.0 mph 23.0 mph 0.00 in   Overcast
10:52 PM 26.1 °F 15.6 °F 23.0 °F 88% 29.83 in 10.0 mi West 11.5 mph 21.9 mph 0.00 in   Scattered Clouds
11:01 PM 24.8 °F 14.6 °F 21.2 °F 86% 29.82 in 10.0 mi West 10.4 mph - N/A   Mostly Cloudy
11:10 PM 24.8 °F 11.5 °F 21.2 °F 86% 29.82 in 10.0 mi West 17.3 mph 25.3 mph N/A   Mostly Cloudy
11:52 PM 24.1 °F 12.5 °F 19.9 °F 84% 29.87 in 10.0 mi West 12.7 mph - N/A   Overcast